This demonstration page uses our WeatherBlox Daily Observations layout. Learn more.

Left ArrowRight Arrow

36.17497, -115.13722

Hourly Observations for August 21, 2019

Temp ( °F °C ) Dew Point ( °F °C ) Humidity (%) Winds ( mph kmh ) Pressure ( in mb ) Visibility ( mi km ) Precip ( " mm )
12:53 am 00:53 Clear 82 27.8 31 -0.6 16 16 NW 5 7 29.81 1010 10 16 0.00 0.00
1:53 am 01:53 Clear 80 26.7 32 0 17 17 NNW 3 6 29.80 1009 10 16 0.00 0.00
2:53 am 02:53 Clear 79 26.1 34 1.1 20 20 W 6 9 29.80 1009 10 16 0.00 0.00
3:53 am 03:53 Clear 83 28.3 25 -3.9 12 12 N 7 11 29.80 1009 10 16 0.00 0.00
4:53 am 04:53 Clear 80 26.7 26 -3.3 14 14 WNW 9 15 29.81 1009 10 16 0.00 0.00
5:53 am 05:53 Clear 79 26.1 25 -3.9 14 14 NW 9 15 29.81 1010 10 16 0.00 0.00
6:53 am 06:53 Sunny 79 26.1 27 -2.8 15 15 WNW 8 13 29.84 1011 10 16 0.00 0.00
7:53 am 07:53 Sunny 83 28.3 29 -1.7 14 14 Calm 29.85 1011 10 16 0.00 0.00
8:53 am 08:53 Sunny 89 31.7 28 -2.2 11 11 Calm 29.86 1011 10 16 0.00 0.00
10:53 am 10:53 Sunny 96 35.6 25 -3.9 8 8 VRB 6 9 29.86 1011 10 16 0.00 0.00
11:53 am 11:53 Sunny 99 37.2 24 -4.4 7 7 Calm 29.83 1010 10 16 0.00 0.00
12:53 pm 12:53 Sunny 101 38.3 25 -3.9 7 7 E 5 7 29.80 1009 10 16 0.00 0.00
1:53 pm 13:53 Sunny 104 40 24 -4.4 6 6 SSE 9 15 29.77 1008 10 16 0.00 0.00
2:53 pm 14:53 Sunny 105 40.6 24 -4.4 6 6 ESE 8 13 29.73 1007 10 16 0.00 0.00
3:53 pm 15:53 Sunny 106 41.1 23 -5 5 5 SE 8 13 29.70 1006 10 16 0.00 0.00
4:53 pm 16:53 Sunny 107 41.7 22 -5.6 5 5 SE 13 20 29.67 1005 10 16 0.00 0.00
5:53 pm 17:53 Sunny 106 41.1 22 -5.6 5 5 ESE 12 19 29.66 1005 10 16 0.00 0.00
6:53 pm 18:53 Sunny 104 40 23 -5 6 6 S 5 7 29.66 1005 10 16 0.00 0.00
7:53 pm 19:53 Clear 102 38.9 23 -5 6 6 WSW 3 6 29.67 1005 10 16 0.00 0.00
8:53 pm 20:53 Clear 100 37.8 23 -5 6 6 SW 5 7 29.67 1005 10 16 0.00 0.00
9:53 pm 21:53 Clear 96 35.6 19 -7.2 6 6 SSW 9 15 29.67 1005 10 16 0.00 0.00
10:53 pm 22:53 Clear 92 33.3 23 -5 8 8 S 10 17 29.67 1005 10 16 0.00 0.00
11:53 pm 23:53 Clear 91 32.8 23 -5 8 8 Calm 29.67 1005 10 16 0.00 0.00

Powered by AerisWeather